Location: Dreilärchen
(47.9312°N, 8.6113°E)
Time: 02:54:20
(UTC+00:00)

USA 305 - Pass Details

Date: 26 May 2022
Orbit: 549 x 553 km, 54.0° (Epoch: 14 June)

Event Time Altitude Azimuth Distance (km) Brightness Sun altitude
Exits shadow 02:38:40 - 275° (W) 2,742 6.0 -8.2°
Rises 02:38:44 0° 275° (W) 2,719 6.0 -8.2°
Reaches altitude 10° 02:41:06 10° 284° (WNW) 1,826 5.2 -7.9°
Maximum altitude 02:44:57 37° 352° (N) 873 4.2 -7.4°
Drops below altitude 10° 02:48:49 10° 61° (ENE) 1,827 7.1 -7.0°
Sets 02:51:11 0° 70° (ENE) 2,722 7.9 -6.7°
